Location: Newark
(10.3333°N, 37.7167°E)
Time: 15:32:28
(UTC+00:00)

STARLINK-1093 - Pass Details

Date: 04 February 2020
Orbit: 348 x 351 km, 53.0° (Epoch: 24 February)

Event Time Altitude Azimuth Distance (km) Brightness Sun altitude
Rises 17:16:41 0° 312° (NW) 2,147 7.1 -25.2°
Reaches altitude 10° 17:18:48 10° 302° (WNW) 1,305 6.1 -25.7°
Enters shadow 17:19:20 14° 296° (WNW) 1,108 5.8 -25.8°
